Location: Bidart
(43.4376°N, 1.5913°W)
Time: 04:06:17
(UTC+00:00)

USA 229 DEB - Pass Details

Date: 17 April 2026
Orbit: 844 x 1364 km, 63.4° (Epoch: 10 January)

Event Time Altitude Azimuth Distance (km) Brightness Sun altitude
Rises 19:27:31 0° 272° (W) 3,563 8.0 -7.0°
Reaches altitude 10° 19:30:40 10° 289° (WNW) 2,697 7.6 -7.5°
Maximum altitude 19:35:17 21° 336° (NNW) 2,146 6.0 -8.3°
Drops below altitude 10° 19:40:19 10° 23° (NNE) 2,966 6.1 -9.1°
Sets 19:44:01 0° 39° (NE) 4,031 6.6 -9.7°
